Location: Indian Hills
(32.9760°N, 85.9450°W)
Time: 22:37:01
(UTC+00:00)

BREEZE-M DEB (TANK) - Pass Details

Date: 09 December 2019
Orbit: 398 x 14926 km, 46.0° (Epoch: 18 January)

Event Time Altitude Azimuth Distance (km) Brightness Sun altitude
Exits shadow 11:13:18 33° 236° (SW) 706 3.0 -16.7°
Maximum altitude 11:13:38 34° 218° (SW) 694 3.1 -16.6°
Drops below altitude 10° 11:16:42 10° 150° (SSE) 1,812 6.1 -16.0°
Sets 11:19:47 0° 141° (SE) 3,347 7.8 -15.4°
